| time (UTC) | temp F | wind direction | speed MPH | gust MPH | rain 1hr in | rain 24hr in | rain mn in | humidity % | barometer mb |
| 20260504081639 | 42 | 250 | 4.0 | 7.0 | 0.00 | 0.00 | 0.00 | 68 | 1010.7 |
| 20260504081135 | 43 | 182 | 5.0 | 7.0 | 0.00 | 0.00 | 0.00 | 68 | 1010.8 |
| 20260504080632 | 43 | 196 | 5.0 | 8.0 | 0.00 | 0.00 | 0.00 | 68 | 1010.8 |
| 20260504080128 | 43 | 236 | 3.0 | 6.0 | 0.00 | 0.00 | 0.00 | 68 | 1010.4 |
| 20260504050445 | 42 | 260 | 1.0 | 2.0 | 0.00 | 0.00 | 0.00 | 72 | 1010.4 |
| 20260504045942 | 43 | 275 | 0.0 | 0.0 | 0.00 | 0.00 | 0.00 | 71 | 1010.4 |
| 20260504045437 | 43 | 275 | 0.0 | 0.0 | 0.00 | 0.00 | 0.00 | 70 | 1010.8 |
| 20260504044934 | 44 | 275 | 0.0 | 0.0 | 0.00 | 0.00 | 0.00 | 70 | 1010.5 |
| 20260504044431 | 44 | 275 | 0.0 | 0.0 | 0.00 | 0.00 | 0.00 | 70 | 1010.7 |
| 20260504043929 | 44 | 275 | 0.0 | 0.0 | 0.00 | 0.00 | 0.00 | 70 | 1010.7 |
| 20260504043426 | 44 | 275 | 0.0 | 0.0 | 0.00 | 0.00 | 0.00 | 70 | 1010.5 |
| 20260504042923 | 44 | 275 | 0.0 | 0.0 | 0.00 | 0.00 | 0.00 | 70 | 1010.5 |
| 20260504042419 | 44 | 275 | 0.0 | 0.0 | 0.00 | 0.00 | 0.00 | 70 | 1010.7 |
| 20260504041916 | 44 | 275 | 0.0 | 1.0 | 0.00 | 0.00 | 0.00 | 70 | 1010.7 |
| 20260504041412 | 44 | 275 | 2.0 | 2.0 | 0.00 | 0.00 | 0.00 | 70 | 1010.5 |
| 20260504040908 | 44 | 275 | 0.0 | 1.0 | 0.00 | 0.00 | 0.00 | 70 | 1010.5 |
| 20260504040406 | 44 | 268 | 0.0 | 0.0 | 0.00 | 0.00 | 0.00 | 70 | 1010.8 |
| 20260504035902 | 44 | 278 | 0.0 | 2.0 | 0.00 | 0.00 | 0.00 | 69 | 1010.7 |
| 20260504035359 | 44 | 275 | 0.0 | 0.0 | 0.00 | 0.00 | 0.00 | 69 | 1010.8 |
| 20260504034856 | 44 | 274 | 0.0 | 2.0 | 0.00 | 0.00 | 0.00 | 69 | 1010.9 |
| 20260504034353 | 44 | 262 | 1.0 | 5.0 | 0.00 | 0.00 | 0.00 | 69 | 1010.8 |
| 20260504033850 | 44 | 280 | 0.0 | 8.0 | 0.00 | 0.00 | 0.00 | 69 | 1010.7 |
| 20260504033348 | 44 | 280 | 2.0 | 3.0 | 0.00 | 0.00 | 0.00 | 69 | 1010.8 |
| 20260504032845 | 44 | 289 | 2.0 | 3.0 | 0.00 | 0.00 | 0.00 | 68 | 1011.0 |
| 20260504032342 | 44 | 263 | 3.0 | 6.0 | 0.00 | 0.00 | 0.00 | 68 | 1011.0 |
| 20260504031838 | 44 | 225 | 4.0 | 5.0 | 0.00 | 0.00 | 0.00 | 68 | 1010.9 |
| 20260504031336 | 44 | 308 | 2.0 | 2.0 | 0.00 | 0.00 | 0.00 | 68 | 1010.9 |
| 20260504030832 | 44 | 263 | 1.0 | 2.0 | 0.00 | 0.00 | 0.00 | 68 | 1010.9 |
| 20260504030330 | 44 | 274 | 0.0 | 1.0 | 0.00 | 0.00 | 0.00 | 68 | 1011.0 |
| 20260504025826 | 43 | 286 | 1.0 | 5.0 | 0.00 | 0.00 | 0.00 | 69 | 1010.8 |
| 20260504025323 | 43 | 278 | 0.0 | 1.0 | 0.00 | 0.00 | 0.00 | 69 | 1011.1 |
| 20260504024820 | 43 | 274 | 1.0 | 2.0 | 0.00 | 0.00 | 0.00 | 69 | 1010.9 |
| 20260504024316 | 42 | 266 | 0.0 | 5.0 | 0.00 | 0.00 | 0.00 | 70 | 1011.0 |
| 20260504023812 | 42 | 259 | 0.0 | 1.0 | 0.00 | 0.00 | 0.00 | 70 | 1010.9 |
| 20260504023309 | 42 | 260 | 0.0 | 0.0 | 0.00 | 0.00 | 0.00 | 70 | 1011.1 |
| 20260504022805 | 42 | 260 | 0.0 | 0.0 | 0.00 | 0.00 | 0.00 | 70 | 1011.1 |
| 20260504022304 | 42 | 260 | 0.0 | 0.0 | 0.00 | 0.00 | 0.00 | 69 | 1010.9 |
| 20260504021758 | 42 | 260 | 0.0 | 0.0 | 0.00 | 0.00 | 0.00 | 69 | 1011.1 |
| 20260504021256 | 42 | 260 | 0.0 | 0.0 | 0.00 | 0.00 | 0.00 | 69 | 1011.0 |
| 20260504020753 | 42 | 260 | 1.0 | 1.0 | 0.00 | 0.00 | 0.00 | 69 | 1010.9 |
| 20260504020249 | 42 | 264 | 0.0 | 0.0 | 0.00 | 0.00 | 0.00 | 69 | 1010.8 |
| 20260504015745 | 42 | 264 | 0.0 | 1.0 | 0.00 | 0.00 | 0.00 | 69 | 1010.9 |
| 20260504015242 | 42 | 268 | 0.0 | 2.0 | 0.00 | 0.00 | 0.00 | 69 | 1011.0 |
| 20260504014737 | 42 | 266 | 0.0 | 0.0 | 0.00 | 0.00 | 0.00 | 68 | 1011.0 |
| 20260504014234 | 43 | 266 | 0.0 | 0.0 | 0.00 | 0.00 | 0.00 | 68 | 1011.1 |
| 20260504013732 | 43 | 266 | 0.0 | 0.0 | 0.00 | 0.00 | 0.00 | 68 | 1011.0 |
| 20260504013230 | 43 | 248 | 0.0 | 0.0 | 0.00 | 0.00 | 0.00 | 68 | 1011.0 |
| 20260504012726 | 43 | 248 | 0.0 | 0.0 | 0.00 | 0.00 | 0.00 | 67 | 1010.7 |
| 20260504012224 | 43 | 267 | 0.0 | 0.0 | 0.00 | 0.00 | 0.00 | 67 | 1010.9 |
| 20260504011720 | 44 | 267 | 0.0 | 0.0 | 0.00 | 0.00 | 0.00 | 67 | 1010.7 |
| 20260504011217 | 44 | 267 | 0.0 | 1.0 | 0.00 | 0.00 | 0.00 | 66 | 1010.7 |
| 20260504010713 | 44 | 266 | 0.0 | 0.0 | 0.00 | 0.00 | 0.00 | 66 | 1010.7 |
| 20260504010209 | 44 | 266 | 0.0 | 0.0 | 0.00 | 0.00 | 0.00 | 66 | 1010.5 |
| 20260504005706 | 44 | 266 | 0.0 | 0.0 | 0.00 | 0.00 | 0.00 | 66 | 1010.7 |
| 20260504005203 | 44 | 266 | 0.0 | 0.0 | 0.00 | 0.00 | 0.00 | 66 | 1010.3 |
| 20260504004701 | 44 | 266 | 0.0 | 0.0 | 0.00 | 0.00 | 0.00 | 66 | 1010.4 |
| 20260504004157 | 44 | 266 | 0.0 | 0.0 | 0.00 | 0.00 | 0.00 | 66 | 1010.4 |
| 20260504003654 | 44 | 266 | 0.0 | 0.0 | 0.00 | 0.00 | 0.00 | 65 | 1010.2 |
| 20260504003151 | 44 | 266 | 0.0 | 0.0 | 0.00 | 0.00 | 0.00 | 66 | 1010.2 |
| 20260504002647 | 44 | 266 | 0.0 | 0.0 | 0.00 | 0.00 | 0.00 | 65 | 1010.2 |
| 20260504002145 | 44 | 266 | 0.0 | 0.0 | 0.00 | 0.00 | 0.00 | 65 | 1010.0 |
| 20260504001643 | 44 | 266 | 0.0 | 0.0 | 0.00 | 0.00 | 0.00 | 65 | 1010.1 |
| 20260504001138 | 44 | 266 | 0.0 | 1.0 | 0.00 | 0.00 | 0.00 | 64 | 1010.1 |
| 20260504000636 | 44 | 266 | 0.0 | 0.0 | 0.00 | 0.00 | 0.00 | 64 | 1010.3 |
| 20260504000133 | 44 | 266 | 0.0 | 1.0 | 0.00 | 0.00 | 0.00 | 63 | 1010.2 |
| 20260503235631 | 45 | 266 | 0.0 | 0.0 | 0.00 | 0.00 | 0.00 | 62 | 1010.0 |
| 20260503235128 | 45 | 266 | 1.0 | 2.0 | 0.00 | 0.00 | 0.00 | 62 | 1010.0 |
| 20260503234626 | 45 | 279 | 0.0 | 2.0 | 0.00 | 0.00 | 0.00 | 62 | 1010.0 |
| 20260503234124 | 46 | 279 | 1.0 | 1.0 | 0.00 | 0.00 | 0.00 | 61 | 1010.0 |
| 20260503233621 | 46 | 259 | 0.0 | 2.0 | 0.00 | 0.00 | 0.00 | 61 | 1010.0 |
| 20260503233116 | 46 | 281 | 1.0 | 3.0 | 0.00 | 0.00 | 0.00 | 61 | 1009.9 |
| 20260503232613 | 46 | 266 | 2.0 | 7.0 | 0.00 | 0.00 | 0.00 | 62 | 1010.0 |
| 20260503232110 | 46 | 248 | 3.0 | 9.0 | 0.00 | 0.00 | 0.00 | 61 | 1009.8 |
| 20260503231609 | 46 | 276 | 0.0 | 2.0 | 0.00 | 0.00 | 0.00 | 61 | 1009.9 |
| 20260503231105 | 46 | 292 | 1.0 | 3.0 | 0.00 | 0.00 | 0.00 | 61 | 1010.0 |
| 20260503230602 | 46 | 263 | 3.0 | 5.0 | 0.00 | 0.00 | 0.00 | 61 | 1010.0 |
| 20260503230059 | 46 | 335 | 4.0 | 5.0 | 0.00 | 0.00 | 0.00 | 61 | 1009.8 |
| 20260503225555 | 46 | 279 | 1.0 | 2.0 | 0.00 | 0.00 | 0.00 | 61 | 1009.9 |
| 20260503225051 | 46 | 303 | 1.0 | 2.0 | 0.00 | 0.00 | 0.00 | 61 | 1009.7 |
| 20260503224549 | 46 | 254 | 1.0 | 5.0 | 0.00 | 0.00 | 0.00 | 60 | 1010.1 |
| 20260503224046 | 47 | 258 | 2.0 | 7.0 | 0.00 | 0.00 | 0.00 | 60 | 1010.0 |
| 20260503223544 | 47 | 231 | 2.0 | 3.0 | 0.00 | 0.00 | 0.00 | 60 | 1009.9 |
| 20260503223039 | 47 | 265 | 1.0 | 5.0 | 0.00 | 0.00 | 0.00 | 60 | 1010.1 |
| 20260503222538 | 47 | 259 | 3.0 | 5.0 | 0.00 | 0.00 | 0.00 | 59 | 1010.1 |
| 20260503222035 | 47 | 291 | 5.0 | 7.0 | 0.00 | 0.00 | 0.00 | 58 | 1010.0 |
| 20260503221533 | 48 | 245 | 4.0 | 11.0 | 0.00 | 0.00 | 0.00 | 57 | 1009.9 |
| 20260503221031 | 48 | 323 | 1.0 | 2.0 | 0.00 | 0.00 | 0.00 | 57 | 1009.9 |
| 20260503220526 | 48 | 252 | 2.0 | 7.0 | 0.00 | 0.00 | 0.00 | 55 | 1009.8 |
| 20260503220023 | 48 | 313 | 5.0 | 9.0 | 0.00 | 0.00 | 0.00 | 54 | 1009.8 |
| 20260503215521 | 48 | 264 | 4.0 | 8.0 | 0.00 | 0.00 | 0.00 | 53 | 1009.7 |
| 20260503215018 | 48 | 269 | 5.0 | 10.0 | 0.00 | 0.00 | 0.00 | 52 | 1009.8 |
| 20260503214516 | 49 | 279 | 3.0 | 8.0 | 0.00 | 0.00 | 0.00 | 53 | 1009.7 |
| 20260503214012 | 49 | 254 | 3.0 | 11.0 | 0.00 | 0.00 | 0.00 | 53 | 1009.7 |
| 20260503213511 | 48 | 303 | 2.0 | 6.0 | 0.00 | 0.00 | 0.00 | 52 | 1009.3 |
| 20260503213007 | 49 | 329 | 4.0 | 9.0 | 0.00 | 0.00 | 0.00 | 51 | 1009.5 |
| 20260503212504 | 49 | 248 | 3.0 | 7.0 | 0.00 | 0.00 | 0.00 | 50 | 1009.4 |
| 20260503212002 | 49 | 288 | 5.0 | 7.0 | 0.00 | 0.00 | 0.00 | 50 | 1009.5 |
| 20260503211459 | 49 | 258 | 2.0 | 7.0 | 0.00 | 0.00 | 0.00 | 50 | 1009.4 |
| 20260503210955 | 50 | 257 | 5.0 | 10.0 | 0.00 | 0.00 | 0.00 | 49 | 1009.5 |
| 20260503210452 | 49 | 302 | 2.0 | 7.0 | 0.00 | 0.00 | 0.00 | 48 | 1009.4 |
| 20260503205952 | 50 | 306 | 1.0 | 10.0 | 0.00 | 0.00 | 0.00 | 48 | 1009.2 |
| 20260503205449 | 50 | 335 | 6.0 | 10.0 | 0.00 | 0.00 | 0.00 | 47 | 1009.5 |
| 20260503204945 | 50 | 240 | 1.0 | 7.0 | 0.00 | 0.00 | 0.00 | 48 | 1009.4 |
| 20260503204442 | 50 | 348 | 9.0 | 15.0 | 0.00 | 0.00 | 0.00 | 46 | 1009.3 |
| 20260503203939 | 50 | 291 | 1.0 | 9.0 | 0.00 | 0.00 | 0.00 | 45 | 1009.3 |
| 20260503203437 | 50 | 237 | 5.0 | 17.0 | 0.00 | 0.00 | 0.00 | 44 | 1009.0 |
| 20260503202933 | 51 | 339 | 6.0 | 8.0 | 0.00 | 0.00 | 0.00 | 44 | 1009.3 |
| 20260503202432 | 51 | 293 | 4.0 | 7.0 | 0.00 | 0.00 | 0.00 | 43 | 1009.0 |
| 20260503201930 | 51 | 297 | 7.0 | 10.0 | 0.00 | 0.00 | 0.00 | 43 | 1009.4 |
| 20260503201427 | 50 | 278 | 5.0 | 9.0 | 0.00 | 0.00 | 0.00 | 44 | 1009.3 |
| 20260503200924 | 50 | 301 | 3.0 | 8.0 | 0.00 | 0.00 | 0.00 | 42 | 1009.6 |
| 20260503200420 | 51 | 304 | 4.0 | 7.0 | 0.00 | 0.00 | 0.00 | 42 | 1009.1 |
| 20260503195917 | 51 | 302 | 4.0 | 10.0 | 0.00 | 0.00 | 0.00 | 39 | 1009.3 |
| 20260503195415 | 52 | 304 | 5.0 | 13.0 | 0.00 | 0.00 | 0.00 | 41 | 1009.5 |
| 20260503194911 | 52 | 264 | 5.0 | 15.0 | 0.00 | 0.00 | 0.00 | 40 | 1009.5 |
| 20260503194408 | 52 | 332 | 6.0 | 9.0 | 0.00 | 0.00 | 0.00 | 41 | 1009.3 |
| 20260503193903 | 52 | 284 | 2.0 | 7.0 | 0.00 | 0.00 | 0.00 | 44 | 1009.7 |
| 20260503193359 | 52 | 301 | 7.0 | 11.0 | 0.00 | 0.00 | 0.00 | 42 | 1010.0 |
| 20260503192855 | 51 | 253 | 3.0 | 11.0 | 0.00 | 0.00 | 0.00 | 43 | 1009.7 |
| 20260503192350 | 51 | 268 | 3.0 | 5.0 | 0.00 | 0.00 | 0.00 | 44 | 1009.7 |
| 20260503191847 | 51 | 246 | 4.0 | 10.0 | 0.00 | 0.00 | 0.00 | 45 | 1009.8 |
| 20260503191344 | 49 | 292 | 4.0 | 7.0 | 0.00 | 0.00 | 0.00 | 46 | 1009.8 |
| 20260503190841 | 49 | 336 | 2.0 | 11.0 | 0.00 | 0.00 | 0.00 | 44 | 1010.1 |
| 20260503190338 | 49 | 262 | 1.0 | 7.0 | 0.00 | 0.00 | 0.00 | 47 | 1010.1 |
| 20260503185835 | 48 | 268 | 5.0 | 11.0 | 0.00 | 0.00 | 0.00 | 44 | 1009.9 |
| 20260503185331 | 48 | 282 | 4.0 | 11.0 | 0.00 | 0.00 | 0.00 | 45 | 1010.0 |
| 20260503184826 | 49 | 343 | 3.0 | 6.0 | 0.00 | 0.00 | 0.00 | 46 | 1010.2 |
| 20260503184322 | 48 | 244 | 3.0 | 6.0 | 0.00 | 0.00 | 0.00 | 46 | 1010.3 |
| 20260503183818 | 48 | 313 | 3.0 | 9.0 | 0.00 | 0.00 | 0.00 | 46 | 1010.1 |
| 20260503183315 | 49 | 294 | 1.0 | 8.0 | 0.00 | 0.00 | 0.00 | 47 | 1010.2 |
| 20260503182812 | 48 | 329 | 3.0 | 6.0 | 0.00 | 0.00 | 0.00 | 49 | 1010.4 |
| 20260503182312 | 48 | 254 | 6.0 | 7.0 | 0.00 | 0.00 | 0.00 | 46 | 1010.4 |
| 20260503181808 | 48 | 302 | 1.0 | 15.0 | 0.00 | 0.00 | 0.00 | 44 | 1010.4 |
| 20260503181305 | 49 | 318 | 3.0 | 5.0 | 0.00 | 0.00 | 0.00 | 46 | 1010.4 |
| 20260503180802 | 49 | 291 | 1.0 | 7.0 | 0.00 | 0.00 | 0.00 | 46 | 1010.4 |
| 20260503180300 | 50 | 229 | 9.0 | 13.0 | 0.00 | 0.00 | 0.00 | 48 | 1010.3 |
| 20260503175755 | 48 | 304 | 3.0 | 8.0 | 0.00 | 0.00 | 0.00 | 49 | 1010.5 |
| 20260503175254 | 48 | 245 | 8.0 | 14.0 | 0.00 | 0.00 | 0.00 | 49 | 1010.4 |
| 20260503174755 | 47 | 259 | 2.0 | 7.0 | 0.00 | 0.00 | 0.00 | 50 | 1010.4 |
| 20260503174253 | 47 | 284 | 5.0 | 13.0 | 0.00 | 0.00 | 0.00 | 49 | 1010.4 |
| 20260503173748 | 46 | 342 | 10.0 | 14.0 | 0.00 | 0.00 | 0.00 | 51 | 1010.8 |
| 20260503173244 | 46 | 284 | 5.0 | 11.0 | 0.00 | 0.00 | 0.00 | 47 | 1010.3 |
| 20260503172741 | 46 | 282 | 6.0 | 9.0 | 0.00 | 0.00 | 0.00 | 50 | 1010.8 |
| 20260503172238 | 45 | 247 | 2.0 | 6.0 | 0.00 | 0.00 | 0.00 | 54 | 1010.8 |
| 20260503171735 | 44 | 303 | 4.0 | 6.0 | 0.00 | 0.00 | 0.00 | 54 | 1010.9 |
| 20260503171232 | 44 | 233 | 2.0 | 6.0 | 0.00 | 0.00 | 0.00 | 53 | 1011.1 |
| 20260503170729 | 44 | 335 | 4.0 | 13.0 | 0.00 | 0.00 | 0.00 | 53 | 1011.3 |
| 20260503170226 | 44 | 263 | 3.0 | 6.0 | 0.00 | 0.00 | 0.00 | 55 | 1010.9 |
| 20260503160147 | 42 | 278 | 3.0 | 7.0 | 0.00 | 0.00 | 0.00 | 57 | 1011.4 |
| 20260503150618 | 39 | 304 | 7.0 | 9.0 | 0.00 | 0.00 | 0.00 | 62 | 1011.3 |
| 20260503150114 | 39 | 318 | 1.0 | 8.0 | 0.00 | 0.00 | 0.00 | 62 | 1011.6 |
| 20260503131007 | 37 | 306 | 5.0 | 9.0 | 0.00 | 0.00 | 0.00 | 75 | 1011.7 |
| 20260503130505 | 37 | 267 | 3.0 | 8.0 | 0.00 | 0.00 | 0.00 | 76 | 1011.4 |
| 20260503110355 | 33 | 293 | 0.0 | 2.0 | 0.00 | 0.00 | 0.00 | 89 | 1011.1 |
| 20260503090241 | 32 | 294 | 1.0 | 2.0 | 0.00 | 0.00 | 0.00 | 89 | 1010.4 |